• Processing (Info)

  • MPEC 2014-N06 : 2014 MO41

    The following Minor Planet Electronic Circular may be linked-to from your own Web pages, but must not otherwise be redistributed electronically.

    A form allowing access to any MPEC is at the bottom of this page.


    Read MPEC 2014-N05 Read MPEC 2014-N07


    M.P.E.C. 2014-N06                                Issued 2014 July 1, 15:06 UT
    
         The Minor Planet Electronic Circulars contain information on unusual
             minor planets and routine data on comets.  They are published
       on behalf of Commission 20 of the International Astronomical Union by the
              Minor Planet Center, Smithsonian Astrophysical Observatory,
                              Cambridge, MA 02138, U.S.A.
    
                 Prepared using the Tamkin Foundation Computer Network
    
                                  MPC@CFA.HARVARD.EDU
                URL https://www.minorplanetcenter.net/    ISSN 1523-6714
    
                                       2014 MO41
    
    Observations:
         K14M41O* C2014 06 27.47460 19 21 40.871-25 54 03.03         20.3 wLEN006F51
         K14M41O  C2014 06 27.48457 19 21 39.090-25 55 52.02         20.0 wLEN006F51
         K14M41O  C2014 06 27.49452 19 21 37.293-25 57 40.75         20.4 wLEN006F51
         K14M41O _C2014 06 28.48729119 18 42.651-29 18 15.44         19.3 RtEN006568
         K14M41O _C2014 06 28.48854319 18 42.362-29 18 32.16         19.4 RtEN006568
         K14M41O KC2014 07 01.50944 19 01 02.30 -45 03 05.3          18.8 RtEN006474
         K14M41O KC2014 07 01.51031 19 01 01.76 -45 03 27.2          19.2 RtEN006474
         K14M41O KC2014 07 01.51117 19 01 01.19 -45 03 49.8          18.7 RtEN006474
         K14M41O KC2014 07 01.51203 19 01 00.62 -45 04 11.5          18.5 RtEN006474
         K14M41O KC2014 07 01.51376 19 00 59.53 -45 04 55.8          19.5 RtEN006474
    
    Observer details:
    474 Mount John Observatory, Lake Tekapo.  Observers A. C. Gilmore,
        P. M. Kilmartin.  Measurer P. M. Kilmartin.  1.0-m f/7.7 reflector + CCD.
    568 Mauna Kea.  Observers R. J. Wainscoat, L. Wells.  Measurers M. Micheli,
        R. J. Wainscoat.  3.6-m Canada-France-Hawaii Telescope + CCD.
    F51 Pan-STARRS 1, Haleakala.  Observers N. Primak, A. Schultz, T. Goggia,
        M. Willman.  1.8-m Ritchey-Chretien + CCD.
    
    Orbital elements:
    2014 MO41                                                Earth MOID = 0.0691 AU
    Epoch 2014 May 23.0 TT = JDT 2456800.5                  MPC
    M 325.86116              (2000.0)            P               Q
    n   0.36641534     Peri.  294.23499     +0.74121379     -0.45447486
    a   1.9341357      Node    96.32503     +0.63458180     +0.71437207
    e   0.7623766      Incl.   29.80466     -0.21887909     +0.53209506
    P   2.69           H   23.2           G   0.15           U   9
    Residuals in seconds of arc
    140627 F51  0.2+  0.2-    140628 568  0.0   0.0     140701 474  0.1+  0.1+
    140627 F51  0.2+  0.1-    140701 474  0.1+  0.2-    140701 474  0.4+  0.2+
    140627 F51  0.1+  0.1+    140701 474  0.4+  0.2+
    140628 568  0.0   0.0     140701 474  0.2+  0.3-
    
    Ephemeris:
    2014 MO41                a,e,i = 1.93, 0.76, 30                  q = 0.4596
    Date    TT    R. A. (2000) Decl.     Delta      r     Elong.  Phase     V
    2014 06 01    19 29 16.7 -05 50 28   0.5910  1.4908   134.8    28.8    24.2
    ...
    2014 06 16    19 31 54.1 -10 08 30   0.3277  1.3087   149.5    23.2    22.5
    ...
    2014 06 24    19 27 39.7 -18 04 05   0.1982  1.2056   161.0    15.9    21.0
    ...
    2014 06 30    19 12 14.6 -35 53 49   0.1123  1.1255   164.9    13.6    19.5
    2014 07 01    19 05 37.1 -41 36 56   0.1004  1.1119   160.7    17.6    19.4
    2014 07 02    18 55 24.9 -48 43 11   0.08980 1.0982   154.2    23.7    19.3
    ...
    2014 07 08    08 56 08.3 -61 11 58   0.08263 1.0150    86.5    88.8    20.9
    ...
    2014 07 16    08 00 26.4 -25 03 11   0.1830  0.9009    46.8   124.7    24.5
    ...
    2014 07 31    07 50 56.2 -09 23 27   0.4232  0.6838    30.3   131.5    26.4
    
    A. U. Tomatic                (C) Copyright 2014 MPC           M.P.E.C. 2014-N06
    

    Read MPEC 2014-N05 Read MPEC 2014-N07


    MPEC number:

    Enter an MPEC number in one of the following forms:

    • 1997-B01 (the full form)
    • J97B01 (the packed version of the full form)
    • B01 (the abbreviated form)